Miscellaneous Local Product
Issued by NWS Hastings, NE

Home | Current Version | Previous Version | Text Only | Print | Product List | Glossary On
Versions: 1 2 3 4 5 6 7 8 9 10 11 12 13 14 15 16 17 18 19 20 21 22 23 24 25 26 27 28 29 30 31 32 33 34 35 36 37 38 39 40 41 42 43 44 45 46 47 48 49 50
000
AXUS43 KGID 281902
MISGRI

GID CWA HOURLY WEATHER ROUNDUP
NATIONAL WEATHER SERVICE HASTINGS NE
200 PM CDT FRI AUG 28 2015

NOTE: "FAIR" INDICATES FEW OR NO CLOUDS BELOW 12,000 FEET WITH NO
SIGNIFICANT WEATHER AND/OR OBSTRUCTIONS TO VISIBILITY.

...SOUTH CENTRAL NEBRASKA...

CITY           SKY/WX    TMP DP  RH WIND       PRES   REMARKS
GRAND ISLAND   CLOUDY    76  62  62 N16       29.94F
HASTINGS       CLOUDY    78  65  63 N17G23    29.94S
KEARNEY        CLOUDY    73  63  68 N17       29.97S
ORD            CLOUDY    74  62  66 N16       29.96F
YORK           CLOUDY    73  66  78 N12G21    29.91S
AURORA         CLOUDY    74  66  76 NW14G22   29.93R
LEXINGTON      CLOUDY    76  65  68 N14       29.99F
HOLDREGE       CLOUDY    75  66  73 N8G20     29.97S
HEBRON         MOSUNNY   81  65  59 N7        29.89F

...NEBRASKA PANHANDLE...

CITY           SKY/WX    TMP DP  RH WIND       PRES   REMARKS
CHADRON        SUNNY     86  49  27 VRB3      30.06F
ALLIANCE       SUNNY     87  49  26 N15       30.09F
SCOTTSBLUFF    SUNNY     86  51  29 NW13      30.11F
SIDNEY         SUNNY     87  47  24 N15G25    30.13F

...WESTERN AND NORTH CENTRAL NEBRASKA...

CITY           SKY/WX    TMP DP  RH WIND       PRES   REMARKS
VALENTINE      MOSUNNY   78  62  57 N7        30.02S
AINSWORTH      PTSUNNY   73  64  75 N9        30.03S
ONEILL         CLOUDY    73  65  76 N7        29.98S
BROKEN BOW     CLOUDY    73  63  70 N13       30.00S
IMPERIAL       SUNNY     86  55  34 N12       30.04F
NORTH PLATTE   MOSUNNY   80  63  55 NW8       30.01F
MCCOOK         MOSUNNY   85  62  46 N15G25    29.99F

...EASTERN NEBRASKA...

CITY           SKY/WX    TMP DP  RH WIND       PRES   REMARKS
NORFOLK        CLOUDY    69  63  81 N13       29.91R
SO SIOUX CITY  CLOUDY    70  64  81 N13       29.85R
TEKAMAH        CLOUDY    73  67  81 NW9       29.84R
COLUMBUS       CLOUDY   N/A N/A N/A NW8G16    29.89S
ALBION         CLOUDY    71  62  72 N14G20    29.93S
OMAHA EPPLEY   CLOUDY    77  70  79 S9        29.82F
OFFUTT AFB     MOSUNNY   78  70  75 SW7       29.82F
MILLARD        PTSUNNY   78  70  76 W9        29.83F
LINCOLN        CLOUDY    80  67  64 NW14      29.86F
NEBRASKA CITY  CLOUDY    76  68  74 W3        29.86S
BEATRICE       MOSUNNY   79  69  72 W6        29.87F
FALLS CITY     CLOUDY    82  69  64 S12       29.85F

...NORTHERN KANSAS...

CITY           SKY/WX    TMP DP  RH WIND       PRES   REMARKS
GOODLAND       SUNNY     90  47  22 N17G25    30.05F
HILL CITY      SUNNY     89  59  36 NW16G23   29.96F
NORTON         PTCLDY    81  59  47 NW12G18   29.97S
PHILLIPSBURG   SUNNY     86  63  45 NW5       29.95S
SMITH CENTER   CLOUDY    79  66  65 NW8       29.93F
HAYS           SUNNY     90  59  35 N13G21    29.93F
RUSSELL        SUNNY     88  64  44 NW16      29.91F
CONCORDIA      CLOUDY    79  69  71 NW7       29.90F
SALINA         PTSUNNY   86  71  60 NW18      29.88S HX  91
TOPEKA         MOSUNNY   83  68  60 S15G23    29.88F



USA.gov is the U.S. government's official web portal to all federal, state and local government web resources and services.